Location: Stilling
(56.0622°N, 9.9882°E)
Time: 00:31:52
(UTC+00:00)

SL-16 R/B - Pass Details

Date: 13 July 2020
Orbit: 839 x 850 km, 71.0° (Epoch: 03 August)

Event Time Altitude Azimuth Distance (km) Brightness Sun altitude
Rises 21:04:55 0° 187° (S) 3,395 4.9 -6.8°
Reaches altitude 10° 21:07:27 10° 181° (S) 2,465 4.1 -6.9°
Maximum altitude 21:12:45 43° 112° (ESE) 1,178 2.6 -7.3°
Drops below altitude 10° 21:18:07 10° 43° (NE) 2,487 4.9 -7.7°
Sets 21:20:40 0° 37° (NE) 3,428 5.7 -7.9°
